Location: Beccas
(43.4309°N, 0.1528°E)
Time: 11:04:45
(UTC+00:00)

Cosmos 2369 - Pass Details

Date: 15 October 2021
Orbit: 838 x 857 km, 71.0° (Epoch: 07 December)

Event Time Altitude Azimuth Distance (km) Brightness Sun altitude
Rises 18:56:03 0° 215° (SW) 3,379 7.2 -18.9°
Reaches altitude 10° 18:58:31 10° 219° (SW) 2,450 6.5 -19.4°
Maximum altitude 19:04:04 59° 298° (WNW) 968 4.2 -20.4°
Drops below altitude 10° 19:09:41 10° 18° (NNE) 2,475 6.0 -21.4°
Sets 19:12:11 0° 23° (NNE) 3,417 6.7 -21.8°
